sat.trackr.live / text

‹ back to catalog

QIANFAN-14

NORAD 60392 · 2024-140P

PAYLOAD ACTIVE UNKNOWN

§ Identity

Operator
Country
PRC
Launch date
2024-08-06
Launch site
TAISC
Launch vehicle
Mass (kg)
RCS (m²)

External: N2YO · Heavens-Above · Gunter

§ Orbital elements

Epoch: 2026-09-22T20:20:32.170848Z

Period
106.59 min
Inclination
88.9638°
Eccentricity
0.0018722
Mean motion
13.51025955 rev/d
Perigee alt
1,054.5 km
Apogee alt
1,082.4 km
Semi-major
7,446.6 km
B*
2.9715e-5
RAAN
269.7399°
Arg perigee
105.8030°
Mean anomaly
254.5187°
Rev number
10,563

§ Raw data

QIANFAN-141 60392U 24140P   26265.84759457  .00000031  00000+0  29715-4 0  99922 60392  88.9638 269.7399 0018722 105.8030 254.5187 13.51025955105639

JSON: /api/v1/satellites/60392 · /tle

For live sub-satellite position, see the globe view (requires WebGL).

§ Visibility from observer

Set your observer location to see the next 7 days of passes ≥ 10°. The values pass through the URL so the page stays shareable.

No JS? Fill the form by hand. The geolocation button needs JavaScript.